www.pogodaiklimat.ru

Погода и климат >> Архив погоды >> Казахстан >> Кусмурын


ПОГОДА в Кусмурыне

  • Прогноз погоды в Кусмурыне
  • Монитор погоды в Кусмурыне
  • Климат города

АРХИВ ПОГОДЫ в Кусмурыне

Время (UTC), дата Ветер
(напр.,м/с)
 
Видим.   Явления Облачность Т
(С)
Тd
(С)
f
(%)
Тe
(С)
Тes
(С)
Комфортность P
(гПа)
Po
(гПа)
Тmin
(С)
Tmax
(С)
R
(мм)
R24
(мм)
S
(см)
21 7.08 З 1 20 км зарница {гроза, ливн. осадки} 4/4 600 м
[Cb cap]
+19.8 +17.5 87 +24 +24 комфорт 1005.8 993.0
00 8.08 СЗ 1 20 км {гроза, ливн. осадки} 8/3 1000 м
[Sc Cs]
+17.1 +16.1 94 +18 +18 1006.3 993.3
03 8.08 З 1 20 км 2 балла +20.3 +18.1 87 +25 +28 комфорт 1007.4 994.7
06 8.08 ЮЗ 1 20 км 1/0
[Ac lent]
+25.9 +15.6 53 +29 +42 душно 1006.7 994.2 +16.6 4
09 8.08 СЗ 2 20 км 3/3 1000 м
[Cu med, cong]
+29.9 +15.1 41 +32 +42 жарко 1006.1 993.7
12 8.08 Ю 1 20 км 3/3 1500 м
[Cu med, cong]
+31.8 +13.1 32 1005.4 993.0
15 8.08 З 1 20 км 3/1 1000 м
[Cu med, cong Ci sp]
+29.3 +16.7 47 +33 +33 душно 1004.9 992.5 +31.9
18 8.08 ЮВ 2 20 км зарница 4/4 600 м
[Cb cap]
+23.7 +14.6 57 +26 +26 жарко 1004.9 992.4 +31.9
21 8.08 ЮЗ 1 20 км зарница 6/5 1000 м
[Cb cap Ac und]
+20.6 +14.7 69 +24 +24 комфорт 1004.5 991.7
00 9.08 ЮВ 2 20 км гроза без осадков 8/6 600 м
[Cb cap Ac cuf Ci ing]
+19.6 +13.7 69 +22 +22 комфорт 1003.7 990.9
03 9.08 Ю 1 20 км 9 баллов +24.3 +15.2 57 +27 +28 жарко 1005.8 993.3
06 9.08 Ю 2 50 км {гроза} 3/1 1000 м
[Cu med, cong Ac und Ci fib]
+27.5 +15.6 48 +30 +40 жарко 1004.9 992.5 +19.2
09 9.08 ЮЗ 4 50 км 8/6 1000 м
[Cu med, cong Ac und Ci fib]
+31.3 +14.2 35 +33 +35 жарко 1003.8 991.6
12 9.08 ЮЗ 5 50 км 9/5 1500 м
[Cu med, cong Ci fib]
+31.9 +12.8 31 +33 +34 жарко 1002.8 990.6
15 9.08 С 4 20 км 10 баллов +25.0 +13.8 50 +27 +27 жарко 1004.5 992.0 +32.5
18 9.08 Ю 1 20 км 8/6 1000 м
[Sc Cs]
+22.0 +15.1 65 +26 +26 душно 1004.0 991.4 +32.5
21 9.08 ЮВ 2 20 км 8/5 1000 м
[Sc Ac und Cs]
+20.6 +14.9 70 +24 +24 комфорт 1003.5 990.9
00 10.08 СЗ 3 20 км 8/4 600 м
[Cu Sc Cs]
+17.2 +13.6 79 +17 +17 1003.4 990.6
03 10.08 С 6 20 км 10 баллов +16.0 +13.3 84 +15 +15 1006.2 993.3
06 10.08 С 6 20 км 10/10 1000 м
[Sc]
+15.6 +12.3 81 +14 +14 1007.4 994.4 +14.9
09 10.08 СЗ 5 20 км 10/10 1000 м
[Sc]
+18.5 +11.4 63 +19 +19 1007.6 994.7
12 10.08 СЗ 6 20 км 8/6 1000 м
[Cu med, cong Ac und]
+19.9 +11.0 56 +21 +22 комфорт 1007.8 995.0
15 10.08 С 8 20 км 9/9 1000 м
[Cu Sc]
+16.6 +9.8 64 +15 +15 1009.7 996.7 +21.0
18 10.08 СЗ 5 20 км ясно +13.6 +8.2 70 +12 +12 1011.4 998.2 +21.0
21 10.08 З 4 20 км ясно +12.6 +8.8 78 +11 +11 1011.0 997.8
00 11.08 З 3 20 км 3/3 1000 м
[Sc]
+10.4 +7.0 79 +8 +8 1010.0 996.8
03 11.08 З 4 20 км 9 баллов +15.6 +9.3 66 +15 +15 1010.3 997.3
06 11.08 З 8 20 км 9/5 1000 м
[Sc Ac und]
+19.9 +8.1 46 +20 +21 1007.0 994.2 +9.8
09 11.08 З 11 20 км 9 баллов +24.3 +10.9 43 +26 +26 жарко 1005.9 993.3
12 11.08 СЗ 9
{16}
20 км 8/6 1000 м
[Cu med, cong Ci fib]
+25.7 +12.2 43 +27 +27 жарко 1003.2 990.7
15 11.08 С 4 20 км 6 баллов +17.5 +13.8 79 +17 +17 1006.1 993.3 +26.3
18 11.08 З 5 20 км {ливн. осадки} 3/3 1000 м
[Sc]
+17.1 +13.2 78 +16 +16 1006.7 993.7 +26.3 0.0
21 11.08 СЗ 4 20 км 4/3 1000 м
[Sc Ci]
+16.7 +13.1 79 +16 +16 1007.7 994.7
00 12.08 СЗ 2 20 км 8/4 1000 м
[Sc Ci]
+12.8 +11.4 91 +12 +12 1009.4 996.3
03 12.08 СЗ 1 20 км 2 балла +14.8 +11.4 80 +15 +18 1011.7 998.7
06 12.08 С 6 20 км 3/3 1000 м
[Cu hum]
+22.0 +8.6 42 +23 +27 комфорт 1010.8 998.0 +11.1
09 12.08 СЗ 6 20 км 1/1 1500 м
[Cu hum]
+24.5 +4.8 28 +24 +28 комфорт 1011.0 998.3
12 12.08 С 6 20 км 1/0
[Ci fib]
+25.7 +2.9 23 +25 +26 комфорт 1011.0 998.4
15 12.08 С 3 20 км 4/0
[Ac lent Ci]
+23.7 +9.3 40 +25 +25 комфорт 1011.4 998.6 +26.3
18 12.08 З 1 20 км 3/0
[Ac lent Ci fib]
+17.5 +10.9 65 +19 +19 1012.7 999.7 +26.3
21 12.08 штиль 0 20 км 3/0
[Ci fib]
+16.0 +10.5 70 +16 +16 1013.0 1000.0
00 13.08 Ю 1 20 км 6/3 1000 м
[Sc Ac lent Ci fib]
+15.5 +10.4 72 +16 +16 1013.6 1000.6
03 13.08 Ю 1 50 км ясно +19.4 +12.9 66 +22 +26 комфорт 1015.6 1002.7
06 13.08 ЮЗ 1 50 км 1/1 1000 м
[Cu hum]
+27.1 +14.3 45 +29 +42 жарко 1013.6 1001.0 +13.4
09 13.08 СВ 1 50 км 6/3 1000 м
[Cu med, cong Ac und Ci fib]
+30.4 +13.4 35 +32 +40 жарко 1012.6 1000.2
12 13.08 СВ 2 20 км 6/3 1000 м
[Cu med, cong Ac und]
+31.0 +13.6 35 +32 +35 жарко 1011.8 999.4
15 13.08 В 2 20 км 4/4 1000 м
[Sc]
+28.7 +14.1 41 +31 +31 жарко 1011.6 999.2 +31.3
18 13.08 В 2 20 км 3/3 1000 м
[Sc]
+23.9 +13.0 50 +26 +26 жарко 1012.3 999.6 +31.3
21 13.08 ЮВ 2 20 км 3/3 1000 м
[Sc]
+21.2 +11.8 55 +23 +23 комфорт 1012.0 999.2
00 14.08 Ю 1 20 км 4/3 1000 м
[Sc Ac und]
+19.5 +11.5 60 +22 +22 комфорт 1012.4 999.6
03 14.08 ЮЗ 2 20 км гроза без осадков 9 баллов +21.6 +13.0 58 +24 +24 комфорт 1014.1 1001.3
06 14.08 штиль 0 20 км {гроза} 9/6 1000 м
[Cu med, cong Ac und]
+25.9 +15.6 53 +29 +32 душно 1013.0 1000.4 +19.5
09 14.08 СЗ 1 20 км 9/8 1000 м
[Cu med, cong Ac und]
+27.1 +14.3 45 +29 +31 жарко 1012.3 999.7
12 14.08 С 5 20 км в посл. час ливневой дождь 10/8 600 м
[Cb cap Ac As]
+21.1 +17.9 82 +25 +25 комфорт 1011.6 998.8
15 14.08 СВ 3 20 км 9 баллов +20.6 +18.2 86 +25 +25 комфорт 1010.0 997.3 +27.7
18 14.08 С 4 20 км 10/10 1000 м
[Sc]
+20.0 +16.0 78 +23 +23 комфорт 1008.6 995.8 +27.7 0.9

 

Местоположение метеостанции Кусмурын (Костанайская область, Казахстан): широта 52.47 долгота 64.67 высота над уровнем моря 110 м.

В архиве по умолчанию представлена погода в Кусмурыне за последнюю неделю. Архивные данные за месяц целиком и за предыдущие месяцы, начиная с января 2011 года, Вы можете получить, выбрав интересующий диапазон дат из раскрывающегося списка и нажав кнопку "Ввод!".


*Определитесь, кто Вы:
робот инопланетянин человек

Внимание! Время в таблицах - всемирное. Для получения местного времени необходимо прибавить поправку, которая в Кусмурыне равна 5 ч.

Смотрите также архив погоды в соседних городах и на ближайших метеорологических станциях:

Погода в Карасу (Костанайская область, Казахстан) (61 км)
Погода в Железнодорожной (Костанайская область, Казахстан) (80 км)
Погода в Диевской (Костанайская область, Казахстан) (85 км)
Погода в Костанае 2 (Костанайская область, Казахстан) (108 км)
Погода в Караменды (Костанайская область, Казахстан) (109 км)
Погода в Костанае (Костанайская область, Казахстан) (109 км)
Погода в Сарыколе (Костанайская область, Казахстан) (111 км)
Погода в Рудном (Костанайская область, Казахстан) (118 км)
Погода в Есиле (Акмолинская область, Казахстан) (131 км)
Погода в Тоболе (Костанайская область, Казахстан) (142 км)

Пояснения к столбцам:

Ветер - указаны скорость ветра в м/с - средняя за 10 мин, порывы в срок и между сроками (в фигурных скобках) и направление, откуда дует ветер: С - северный, СВ - северо-восточный, В - восточный, ЮВ - юго-восточный, Ю - южный, ЮЗ - юго-западный, З - западный, СЗ - северо-западный.
Видимость - горизонтальная дальность видимости в метрах или километрах. При видимости от 1 до 10 км при отсутствии осадков обычно наблюдается дымка, при ухудшении видимости до 1 км и менее - туман. В сухую погоду видимость может ухудшаться дымом, пылью или мглою.
Явления - указаны атмосферные явления, наблюдавшиеся в срок или в последний час перед сроком; фигурными скобками обозначены явления, наблюдавшиеся между сроками (за 1-3 часа до срока); квадратными скобками обозначены град или гололедные отложения с указанием их диаметра в мм.
Облачность - указаны через наклонную черту общая и нижняя облачность в баллах и высота нижней границы облаков в метрах; квадратными скобками обозначены формы облаков: Ci - перистые, Cs - перисто-слоистые, Cc - перисто-кучевые, Ac - высококучевые, As - высокослоистые, Sc - слоисто-кучевые, Ns - слоисто-дождевые, Cu - кучевые, Cb - кучево-дождевые. Подробнее классификацию облаков см. в Атласе облаков (PDF).
T - Температура воздуха - температура, измеренная на высоте 2 м над землей.
Td - Температура точки росы - температура, при понижении до которой содержащийся в воздухе водяной пар достигнет насыщения.
f - Относительная влажность воздуха - влажноcть воздуха, измеренная на высоте 2 м над землей.
Te - Эффективная температура - температура, которую ощущает одетый по сезону человек в тени. Характеристика душности погоды. При расчете учитывается влияние влажности воздуха и скорости ветра на теплоощущения человека.
Tes - Эффективная температура на солнце - температура, которую ощущает человек, с поправкой на солнечный нагрев. Характеристика знойности погоды. Зависит от высоты солнца над горизонтом, облачности и скорости ветра. Ночью, в пасмурную погоду, а также при ветре 12 м/с и более поправка равна нулю.
P - Атмосферное давление - приведенное к уровню моря атмосферное давление.
Po - Атмосферное давление - измеренное на уровне метеостанции атмосферное давление.
Tmin - Минимальная температура - минимум температуры воздуха на высоте 2 м над землей.
Tmax - Максимальная температура - максимум температуры воздуха на высоте 2 м над землей.
R - Количество осадков - Количество выпавших осадков за период времени, мм. При наведении курсора мыши на число - период времени, за который выпало указанное количество осадков.
R24 - Количество осадков - Количество выпавших осадков за 24 часа, мм.
S - Снежный покров - Высота снежного покрова, см. При наведении курсора мыши на число - состояние снежного покрова и степень покрытия местности в баллах.